Find Starlink 34406

NORAD ID: 64705 Int'l Des: 2025-142 Owner: SPXS Country: US Constellation: starlink operational
LEOCIRCULAR

Current View

Loading 3D Globe...

About Starlink 34406

Description loading...

Upcoming Passes

Passes for default location (London). Set your location on the main map for personalized predictions.

Altitude History

Loading altitude history...

Two-Line Element Set

1 64705U 25142K 26145.36298358 .00002788 00000-0 24127-3 0 9992
2 64705 70.0002 121.2201 0004052 264.5326 95.5371 14.98337276 51085
Epoch: May 25, 2026 • Age: 24 hours

Current Status

Altitude 579.4 km
Velocity 7.57 km/s
Sub-Earth Point -23.53°S, 96.2°E
Launch Date Jun 28, 2025
Age 0.9 years
Type internet

Technical Details

Classification Payload
Mass 575.00 kg
Dry Mass 530.00 kg
Total Mass 575.00 kg
Length 0.30 m
Diameter 4.10 m
Span 29.00 m
Shape Box + pan
Manufacturer SPXS
Bus Type Starlink V2MO
Phase Status In Orbit
Owner/State SPXS/US

Most Searched